FW8402 Weather Reports


time (UTC)temp
F
wind
direction
speed
knots
gust
knots
rain 1hr
in
rain 24hr
in
rain mn
in
humidity
%
barometer
mb
20260505040210 66 104 7.0 7.8 0.00 0.00 0.00 79 1016.5
20260505035706 66 98 7.0 7.8 0.00 0.00 0.00 79 1016.3
20260505035202 66 97 6.1 7.8 0.00 0.00 0.00 79 1016.4
20260505034659 66 93 6.1 7.0 0.00 0.00 0.00 78 1016.4
20260505034156 66 100 7.8 7.8 0.00 0.00 0.00 78 1016.3
20260505033652 66 88 6.1 7.8 0.00 0.00 0.00 77 1016.2
20260505033151 66 98 6.1 7.8 0.00 0.00 0.00 77 1016.1
20260505032648 67 102 7.0 7.8 0.00 0.00 0.00 77 1016.2
20260505032144 67 101 6.1 8.7 0.00 0.00 0.00 76 1016.3
20260505031642 67 89 5.2 8.7 0.00 0.00 0.00 76 1016.2
20260505031138 67 99 7.8 9.6 0.00 0.00 0.00 76 1016.2
20260505030635 67 93 6.1 8.7 0.00 0.00 0.00 75 1016.2
20260505030131 67 98 7.0 8.7 0.00 0.00 0.00 75 1016.2
20260505025627 67 101 7.0 8.7 0.00 0.00 0.00 75 1016.3
20260505025126 67 97 7.8 8.7 0.00 0.00 0.00 74 1016.4
20260505024623 67 91 5.2 8.7 0.00 0.00 0.00 74 1016.0
20260505024120 67 101 6.1 9.6 0.00 0.00 0.00 74 1016.2
20260505023617 68 104 9.6 10.4 0.00 0.00 0.00 73 1016.0
20260505023114 68 93 6.1 9.6 0.00 0.00 0.00 73 1015.9
20260505022612 68 96 7.0 8.7 0.00 0.00 0.00 72 1015.9
20260505022109 68 96 7.8 9.6 0.00 0.00 0.00 72 1015.8
20260505021605 68 110 8.7 8.7 0.00 0.00 0.00 71 1015.9
20260505021102 68 99 6.1 9.6 0.00 0.00 0.00 71 1016.0
20260505020602 68 88 6.1 8.7 0.00 0.00 0.00 70 1015.8
20260505020059 68 100 7.0 9.6 0.00 0.00 0.00 70 1015.9
20260505015556 68 94 7.0 8.7 0.00 0.00 0.00 70 1015.8
20260505015053 69 96 6.1 9.6 0.00 0.00 0.00 69 1015.8
20260505014550 69 93 5.2 9.6 0.00 0.00 0.00 69 1015.9
20260505014047 69 97 6.1 7.8 0.00 0.00 0.00 69 1015.8
20260505013544 69 96 7.0 8.7 0.00 0.00 0.00 68 1015.7
20260505013041 69 92 7.8 9.6 0.00 0.00 0.00 68 1016.0
20260505012539 69 89 7.0 8.7 0.00 0.00 0.00 67 1015.9
20260505012036 69 95 7.0 7.8 0.00 0.00 0.00 67 1016.0
20260505011531 70 103 6.1 7.8 0.00 0.00 0.00 67 1015.8
20260505011029 70 95 5.2 9.6 0.00 0.00 0.00 66 1015.7
20260505010524 70 98 7.0 10.4 0.00 0.00 0.00 66 1015.7
20260505010021 70 118 9.6 9.6 0.00 0.00 0.00 65 1015.9
20260505005517 71 98 5.2 8.7 0.00 0.00 0.00 65 1015.9
20260505005015 71 131 6.1 8.7 0.00 0.00 0.00 64 1016.0
20260505004512 71 102 6.1 12.2 0.00 0.00 0.00 64 1015.8
20260505004008 71 95 7.8 9.6 0.00 0.00 0.00 64 1015.9
20260505003506 71 98 7.8 10.4 0.00 0.00 0.00 63 1016.0
20260505003003 72 108 5.2 9.6 0.00 0.00 0.00 63 1015.9
20260505002458 72 89 7.0 9.6 0.00 0.00 0.00 63 1015.9
20260505001956 72 105 9.6 10.4 0.00 0.00 0.00 62 1015.8
20260505001454 72 99 6.1 9.6 0.00 0.00 0.00 62 1015.8
20260505000950 73 113 6.1 11.3 0.00 0.00 0.00 61 1015.9
20260505000449 73 114 9.6 13.9 0.00 0.00 0.00 60 1015.9
20260504235945 73 131 7.0 9.6 0.00 0.00 0.00 58 1015.8
20260504235442 74 93 5.2 8.7 0.00 0.00 0.00 58 1016.1
20260504234939 74 99 6.1 10.4 0.00 0.00 0.00 58 1016.1
20260504234436 74 114 6.1 10.4 0.00 0.00 0.00 57 1015.9
20260504233932 75 106 6.1 7.8 0.00 0.00 0.00 57 1016.2
20260504233428 74 99 7.8 9.6 0.00 0.00 0.00 57 1016.3
20260504232925 75 101 5.2 8.7 0.00 0.00 0.00 57 1016.4
20260504232422 74 112 7.8 12.2 0.00 0.00 0.00 56 1016.5
20260504231919 75 86 7.0 8.7 0.00 0.00 0.00 56 1016.8
20260504231415 75 102 6.1 9.6 0.00 0.00 0.00 57 1016.8
20260504230912 75 106 8.7 9.6 0.00 0.00 0.00 56 1016.7
20260504230409 76 117 8.7 13.9 0.00 0.00 0.00 55 1016.7
20260504225908 76 99 7.8 11.3 0.00 0.00 0.00 54 1016.6
20260504225404 76 110 11.3 12.2 0.00 0.00 0.00 54 1016.8
20260504224902 76 94 6.1 9.6 0.00 0.00 0.00 55 1016.7
20260504224358 76 143 5.2 16.5 0.00 0.00 0.00 53 1016.8
20260504223855 76 108 8.7 12.2 0.00 0.00 0.00 54 1016.9
20260504223356 75 106 7.8 12.2 0.00 0.00 0.00 53 1016.7
20260504222852 76 110 7.8 13.0 0.00 0.00 0.00 52 1016.8
20260504222349 76 129 7.8 8.7 0.00 0.00 0.00 53 1016.8
20260504221848 76 107 7.0 12.2 0.00 0.00 0.00 52 1016.9
20260504221344 77 132 7.8 8.7 0.00 0.00 0.00 53 1016.8
20260504220841 77 112 6.1 9.6 0.00 0.00 0.00 52 1016.9
20260504220338 76 96 6.1 8.7 0.00 0.00 0.00 53 1017.1
20260504215835 77 105 7.0 12.2 0.00 0.00 0.00 52 1017.0
20260504215331 77 103 4.3 7.8 0.00 0.00 0.00 50 1017.0
20260504214827 77 108 6.1 9.6 0.00 0.00 0.00 51 1017.2
20260504214325 77 107 8.7 9.6 0.00 0.00 0.00 51 1017.3
20260504213821 77 103 6.1 7.8 0.00 0.00 0.00 50 1017.4
20260504213317 77 125 6.1 11.3 0.00 0.00 0.00 50 1017.3
20260504212815 77 116 7.8 9.6 0.00 0.00 0.00 50 1017.4
20260504212311 78 125 6.1 9.6 0.00 0.00 0.00 48 1017.7
20260504211809 77 120 7.0 9.6 0.00 0.00 0.00 49 1017.7
20260504211304 78 115 6.1 9.6 0.00 0.00 0.00 49 1017.6
20260504210802 77 126 8.7 12.2 0.00 0.00 0.00 49 1017.4
20260504210259 77 117 4.3 10.4 0.00 0.00 0.00 49 1017.7
20260504205756 76 136 7.0 9.6 0.00 0.00 0.00 49 1017.6
20260504205254 77 114 7.8 12.2 0.00 0.00 0.00 49 1017.6
20260504204752 77 95 6.1 9.6 0.00 0.00 0.00 50 1018.0
20260504204250 78 109 7.0 13.9 0.00 0.00 0.00 47 1018.1
20260504203749 77 117 7.0 8.7 0.00 0.00 0.00 49 1017.9
20260504203246 78 152 8.7 10.4 0.00 0.00 0.00 48 1017.9
20260504202741 77 122 4.3 9.6 0.00 0.00 0.00 48 1018.0
20260504202239 77 109 6.1 7.8 0.00 0.00 0.00 49 1018.1
20260504201736 77 159 6.1 10.4 0.00 0.00 0.00 48 1018.5
20260504201233 78 113 6.1 10.4 0.00 0.00 0.00 48 1018.4
20260504200731 78 116 6.1 13.0 0.00 0.00 0.00 48 1018.5
20260504200226 77 112 7.0 12.2 0.00 0.00 0.00 49 1018.6
20260504195723 78 131 5.2 8.7 0.00 0.00 0.00 47 1018.7
20260504195219 77 112 10.4 11.3 0.00 0.00 0.00 48 1018.7
20260504194716 77 130 3.5 10.4 0.00 0.00 0.00 47 1018.8
20260504194212 77 124 7.0 8.7 0.00 0.00 0.00 49 1018.9
20260504193709 77 88 6.1 11.3 0.00 0.00 0.00 49 1018.9
20260504193206 77 107 7.0 10.4 0.00 0.00 0.00 49 1018.8
20260504192704 76 103 6.1 8.7 0.00 0.00 0.00 48 1019.2
20260504192202 78 147 8.7 9.6 0.00 0.00 0.00 47 1019.1
20260504191701 77 139 7.8 14.8 0.00 0.00 0.00 48 1019.2
20260504191156 77 109 6.1 15.6 0.00 0.00 0.00 48 1019.2
20260504190652 78 118 6.1 9.6 0.00 0.00 0.00 47 1019.2
20260504190149 77 105 7.8 13.9 0.00 0.00 0.00 47 1019.3
20260504185645 76 129 7.0 9.6 0.00 0.00 0.00 47 1019.4
20260504185142 77 114 7.0 13.0 0.00 0.00 0.00 47 1019.2
20260504184638 77 127 9.6 13.9 0.00 0.00 0.00 48 1019.4
20260504184133 78 109 7.0 11.3 0.00 0.00 0.00 49 1019.4
20260504183631 77 140 5.2 7.8 0.00 0.00 0.00 47 1019.5
20260504183128 76 131 6.1 10.4 0.00 0.00 0.00 49 1019.5
20260504182626 76 120 7.8 11.3 0.00 0.00 0.00 50 1019.4
20260504182123 76 137 4.3 9.6 0.00 0.00 0.00 49 1019.6
20260504181620 76 116 6.1 8.7 0.00 0.00 0.00 49 1019.7
20260504181118 76 138 5.2 12.2 0.00 0.00 0.00 50 1019.4
20260504180617 76 130 7.0 11.3 0.00 0.00 0.00 49 1019.6
20260504180115 76 112 7.0 9.6 0.00 0.00 0.00 49 1019.4
20260504175612 76 120 7.8 11.3 0.00 0.00 0.00 49 1019.8
20260504175109 76 182 5.2 10.4 0.00 0.00 0.00 49 1020.0
20260504174607 77 127 6.1 13.0 0.00 0.00 0.00 47 1019.7
20260504174103 76 114 7.8 15.6 0.00 0.00 0.00 48 1019.9
20260504173600 76 122 7.8 11.3 0.00 0.00 0.00 47 1020.1
20260504173058 77 126 7.0 11.3 0.00 0.00 0.00 47 1020.2
20260504172553 75 117 5.2 11.3 0.00 0.00 0.00 51 1020.4
20260504172050 77 133 4.3 9.6 0.00 0.00 0.00 49 1020.3
20260504171546 75 99 11.3 13.0 0.00 0.00 0.00 50 1020.5
20260504171044 76 108 8.7 13.9 0.00 0.00 0.00 49 1020.5
20260504170540 76 131 6.1 11.3 0.00 0.00 0.00 48 1020.5
20260504150923 74 120 6.1 10.4 0.00 0.00 0.00 46 1020.9
20260504150420 74 129 6.1 9.6 0.00 0.00 0.00 46 1020.9
20260504140841 71 115 7.0 7.8 0.00 0.00 0.00 60 1021.0
20260504140337 71 106 7.0 10.4 0.00 0.00 0.00 62 1020.9
20260504130806 67 97 6.1 7.8 0.00 0.00 0.00 71 1021.0
20260504130302 67 103 5.2 7.0 0.00 0.00 0.00 71 1020.9
20260504120226 59 87 7.0 7.8 0.00 0.00 0.00 97 1020.4
20260504110653 54 79 7.0 7.8 0.00 0.00 0.00 98 1020.0
20260504110149 54 78 7.8 7.8 0.00 0.00 0.00 98 1019.9
20260504100609 55 84 7.0 7.8 0.00 0.00 0.00 97 1020.2
20260504100108 55 87 7.0 7.8 0.00 0.00 0.00 97 1020.1
20260504082003 56 88 7.0 7.0 0.00 0.00 0.00 94 1020.7
20260504081501 56 89 7.0 7.8 0.00 0.00 0.00 94 1020.6
20260504080955 56 88 7.0 8.7 0.00 0.00 0.00 94 1021.0
20260504080452 56 83 7.8 7.8 0.00 0.00 0.00 94 1020.7
20260504050750 60 86 7.0 7.0 0.00 0.00 0.00 82 1021.7
20260504050247 60 86 6.1 7.0 0.00 0.00 0.00 81 1021.7
20260504045744 61 80 7.0 7.8 0.00 0.00 0.00 81 1021.7
20260504045239 61 81 6.1 7.0 0.00 0.00 0.00 80 1021.7
20260504044737 60 81 6.1 7.0 0.00 0.00 0.00 80 1021.7
20260504044234 61 84 6.1 7.0 0.00 0.00 0.00 79 1021.7
20260504043731 61 92 6.1 7.0 0.00 0.00 0.00 79 1021.6
20260504043227 61 89 6.1 7.0 0.00 0.00 0.00 78 1022.1
20260504042725 62 83 6.1 7.0 0.00 0.00 0.00 77 1022.1
20260504042222 62 88 5.2 6.1 0.00 0.00 0.00 76 1022.0
20260504041718 62 89 6.1 7.0 0.00 0.00 0.00 75 1022.2
20260504041214 63 89 6.1 6.1 0.00 0.00 0.00 74 1022.1
20260504040710 63 89 6.1 6.1 0.00 0.00 0.00 73 1022.1